Weather History for Wichita Falls, TX

Change the Weather History Date:

Wednesday, October 23, 2013

  Actual Average Record
Temperature  
Mean Temperature 64 °F 62 °F  
Max Temperature 83 °F 75 °F 92 °F (2003)
Min Temperature 44 °F 50 °F 33 °F (1981)
Degree Days  
Heating Degree Days 1 5  
Month to date heating degree days 78 64  
Since 1 July heating degree days 78 77  
Cooling Degree Days 0 2  
Month to date cooling degree days 97 85  
Year to date cooling degree days 2602 2364  
Growing Degree Days 14 (Base 50)    
Moisture  
Dew Point 43 °F    
Average Humidity 52    
Maximum Humidity 86    
Minimum Humidity 18    
Precipitation  
Precipitation 0.00 in 0.10 in 1.58 in (1949)
Month to date precipitation 1.65 2.34  
Year to date precipitation 19.10 24.88  
Sea Level Pressure  
Sea Level Pressure 30.06 in    
Wind  
Wind Speed 7 mph (SW)    
Max Wind Speed 20 mph    
Max Gust Speed 23 mph    
Visibility 8 miles    
Events      
T = Trace of Precipitation, MM = Missing Value Source: NWS Daily Summary

Daily Weather History Graph

Daily Weather History Graph

Search for Another Location

Airport:

Trip Planner

Search our weather history database for the weather conditions in past years. The results will help you decide how hot, cold, wet, or windy it might be!

Date:

Astronomy

Oct. 23, 2013 Rise Set
Actual Time 7:45 AM CDT 6:50 PM CDT
Civil Twilight 7:20 AM CDT 7:15 PM CDT
Nautical Twilight 6:51 AM CDT 7:44 PM CDT
Astronomical Twilight 6:22 AM CDT 8:13 PM CDT
Moon 10:29 PM CDT (10/23) 11:57 AM CDT (10/23)
Length of Visible Light 11h 55m
Length of Day
11h 04m
Waning Gibbous, 79% of the Moon is Illuminated
Oct 23
Waning Gibbous
Oct 26
Last Quarter
Nov 3
New
Nov 9
First Quarter
Nov 17
Full

Hourly Weather History & Observations

Time (CDT) Temp. Dew Point Humidity Pressure Visibility Wind Dir Wind Speed Gust Speed Precip Events Conditions
12:52 AM 59.0 °F 44.1 °F 58% 30.06 in 10.0 mi Calm Calm - N/A   Clear
1:52 AM 55.0 °F 45.0 °F 69% 30.06 in 10.0 mi Calm Calm - N/A   Clear
2:02 AM 55.4 °F 44.6 °F 67% 30.08 in 1.8 mi Calm Calm - N/A   Haze
2:18 AM 57.2 °F 44.6 °F 63% 30.08 in 4.0 mi Calm Calm - N/A   Haze
2:29 AM 57.2 °F 44.6 °F 63% 30.08 in 1.5 mi Calm Calm - N/A   Haze
2:39 AM 55.4 °F 44.6 °F 67% 30.09 in 0.8 mi Calm Calm - N/A   Haze
2:44 AM 55.4 °F 44.6 °F 67% 30.09 in 2.0 mi Calm Calm - N/A   Haze
2:52 AM 55.9 °F 44.1 °F 64% 30.06 in 10.0 mi Calm Calm - N/A   Clear
3:52 AM 53.1 °F 45.0 °F 74% 30.06 in 10.0 mi Calm Calm - N/A   Clear
4:52 AM 48.9 °F 44.1 °F 83% 30.06 in 10.0 mi North 4.6 mph - N/A   Clear
5:30 AM 48.2 °F 44.6 °F 87% 30.09 in 1.5 mi Calm Calm - N/A   Haze
5:39 AM 48.2 °F 42.8 °F 82% 30.10 in 0.5 mi Calm Calm - N/A   Haze
5:52 AM 50.0 °F 44.1 °F 80% 30.08 in 1.8 mi Calm Calm - N/A   Haze
5:54 AM 50.0 °F 44.6 °F 82% 30.10 in 3.0 mi Calm Calm - N/A   Haze
6:52 AM 46.9 °F 43.0 °F 86% 30.09 in 10.0 mi NNW 4.6 mph - N/A   Clear
7:52 AM 46.9 °F 42.1 °F 83% 30.09 in 10.0 mi NNE 3.5 mph - N/A   Clear
8:52 AM 51.1 °F 46.0 °F 83% 30.10 in 10.0 mi Calm Calm - N/A   Clear
9:52 AM 57.0 °F 48.0 °F 72% 30.11 in 10.0 mi SSW 3.5 mph - N/A   Clear
10:52 AM 64.9 °F 45.0 °F 48% 30.11 in 10.0 mi West 3.5 mph - N/A   Clear
11:52 AM 70.0 °F 44.1 °F 39% 30.10 in 10.0 mi SW 6.9 mph - N/A   Clear
12:52 PM 75.0 °F 44.1 °F 33% 30.07 in 7.0 mi SW 9.2 mph - N/A   Clear
1:52 PM 79.0 °F 41.0 °F 26% 30.04 in 10.0 mi SW 9.2 mph - N/A   Clear
2:52 PM 82.0 °F 39.9 °F 22% 30.00 in 10.0 mi SW 10.4 mph 19.6 mph N/A   Clear
3:52 PM 82.0 °F 37.0 °F 20% 29.99 in 10.0 mi SW 18.4 mph - N/A   Clear
4:52 PM 82.0 °F 36.0 °F 19% 29.99 in 10.0 mi WSW 12.7 mph 21.9 mph N/A   Clear
5:52 PM 80.1 °F 37.0 °F 21% 29.99 in 10.0 mi SW 12.7 mph - N/A   Clear
6:52 PM 71.1 °F 42.1 °F 35% 29.99 in 10.0 mi South 6.9 mph - N/A   Clear
7:52 PM 71.1 °F 42.1 °F 35% 30.01 in 10.0 mi South 5.8 mph - N/A   Clear
8:52 PM 60.1 °F 46.0 °F 60% 30.02 in 10.0 mi South 10.4 mph - N/A   Clear
9:52 PM 62.1 °F 44.1 °F 52% 30.01 in 10.0 mi SSW 12.7 mph - N/A   Clear
10:52 PM 66.0 °F 39.9 °F 38% 30.01 in 9.0 mi SSW 11.5 mph - N/A   Clear
11:52 PM 66.0 °F 39.0 °F 37% 30.01 in 9.0 mi SW 13.8 mph - N/A   Clear